Weather History for KCDW - December, 2012

Change the Weather History Date:

Sunday, December 2, 2012

  Actual Average Record
Temperature  
Mean Temperature 42 °F -  
Max Temperature 48 °F 44 °F 68 °F (1962)
Min Temperature 37 °F 26 °F 10 °F (1967)
Degree Days  
Heating Degree Days 22    
Moisture  
Dew Point 40 °F    
Average Humidity 93    
Maximum Humidity 100    
Minimum Humidity 77    
Precipitation  
Precipitation 0.08 in - - ()
Sea Level Pressure  
Sea Level Pressure 30.30 in    
Wind  
Wind Speed 1 mph (SW)    
Max Wind Speed 7 mph    
Max Gust Speed -    
Visibility 2 miles    
Events Fog , Rain    
Averages and records for this station are not official NWS values.
T = Trace of Precipitation, MM = Missing Value Source: NWS Daily Summary

Daily Weather History Graph

Daily Weather History Graph

Search for Another Location

Airport or City:

Trip Planner

Search our weather history database for the weather conditions in past years. The results will help you decide how hot, cold, wet, or windy it might be!

Date:

Astronomy

Dec. 02, 2012 Rise Set
Actual Time 7:03 AM EST 4:29 PM EST
Civil Twilight 6:33 AM EST 5:00 PM EST
Nautical Twilight 5:59 AM EST 5:34 PM EST
Astronomical Twilight 5:25 AM EST 6:07 PM EST
Moon 8:15 PM EST 9:51 AM EST
Length of Visible Light 10h 27m
Length of Day
9h 25m
Waning Gibbous, 86% of the Moon is Illuminated
Dec 2
Waning Gibbous
Dec 6
Last Quarter
Dec 13
New
Dec 20
First Quarter
Dec 28
Full

Hourly Weather History & Observations

Time (EST) Temp. Windchill Dew Point Humidity Pressure Visibility Wind Dir Wind Speed Gust Speed Precip Events Conditions
12:53 AM 37.9 °F - 37.0 °F 97% 30.44 in 1.0 mi Calm Calm - N/A   Overcast
1:13 AM 39.2 °F - 37.4 °F 93% 30.42 in 0.8 mi Calm Calm - N/A   Overcast
1:53 AM 39.0 °F - 37.9 °F 96% 30.44 in 0.8 mi Calm Calm - N/A   Overcast
2:24 AM 39.2 °F - 37.4 °F 93% 30.41 in 0.5 mi Calm Calm - N/A Fog Fog
2:53 AM 39.0 °F - 37.9 °F 96% 30.42 in 0.5 mi Calm Calm - N/A Fog Fog
3:14 AM 39.2 °F - 37.4 °F 93% 30.39 in 0.2 mi Calm Calm - N/A Fog Fog
3:22 AM 39.2 °F - 37.4 °F 93% 30.39 in 0.5 mi Calm Calm - N/A Fog Fog
3:53 AM 39.0 °F - 37.9 °F 96% 30.41 in 0.2 mi Calm Calm - N/A Fog Fog
4:53 AM 39.9 °F - 39.0 °F 97% 30.41 in 0.2 mi Calm Calm - N/A Fog Fog
5:31 AM 39.2 °F - 39.2 °F 100% 30.38 in 0.8 mi Calm Calm - N/A   Mist
5:48 AM 39.2 °F - 39.2 °F 100% 30.39 in 0.5 mi Calm Calm - N/A Fog Fog
5:53 AM 39.9 °F - 39.0 °F 97% 30.41 in 0.5 mi Calm Calm - N/A Fog Fog
6:08 AM 39.2 °F - 37.4 °F 93% 30.38 in 0.5 mi Calm Calm - N/A Fog Fog
6:21 AM 39.2 °F - 37.4 °F 93% 30.38 in 1.2 mi Calm Calm - N/A   Overcast
6:32 AM 39.2 °F - 39.2 °F 100% 30.38 in 0.8 mi Calm Calm - N/A   Overcast
6:53 AM 39.0 °F - 39.0 °F 100% 30.40 in 0.8 mi Calm Calm - N/A   Overcast
7:03 AM 39.2 °F - 37.4 °F 93% 30.38 in 1.2 mi Calm Calm - N/A   Overcast
7:25 AM 39.2 °F - 37.4 °F 93% 30.37 in 0.5 mi Calm Calm - N/A Fog Fog
7:33 AM 39.2 °F - 37.4 °F 93% 30.37 in 0.2 mi Calm Calm - N/A Fog Fog
7:40 AM 39.2 °F 37.0 °F 37.4 °F 93% 30.37 in 0.5 mi SE 3.5 mph - N/A Fog Fog
7:51 AM 39.2 °F - 37.4 °F 93% 30.36 in 1.0 mi Calm Calm - N/A   Overcast
7:53 AM 39.0 °F - 37.9 °F 96% 30.38 in 0.8 mi Calm Calm - N/A   Overcast
8:04 AM 39.2 °F - 39.2 °F 100% 30.35 in 0.2 mi Calm Calm - N/A Fog Fog
8:53 AM 39.9 °F - 39.0 °F 97% 30.38 in 0.2 mi Calm Calm - N/A Fog Fog
9:53 AM 39.9 °F - 39.0 °F 97% 30.38 in 0.2 mi Calm Calm - N/A Fog Fog
10:18 AM 39.2 °F - 39.2 °F 100% 30.35 in 0.5 mi Calm Calm - N/A Fog Fog
10:53 AM 41.0 °F - 39.9 °F 96% 30.34 in 1.0 mi Calm Calm - N/A   Overcast
11:09 AM 41.0 °F 39.0 °F 39.2 °F 93% 30.31 in 2.0 mi SSW 3.5 mph - N/A   Overcast
11:42 AM 42.8 °F - 39.2 °F 87% 30.29 in 3.0 mi Calm Calm - N/A   Overcast
11:49 AM 42.8 °F - 39.2 °F 87% 30.28 in 3.0 mi Calm Calm - N/A   Overcast
11:53 AM 42.1 °F - 39.9 °F 92% 30.30 in 4.0 mi Calm Calm - N/A   Overcast
12:53 PM 44.1 °F - 41.0 °F 89% 30.26 in 5.0 mi Calm Calm - N/A   Overcast
1:53 PM 46.0 °F 44.8 °F 42.1 °F 86% 30.23 in 5.0 mi West 3.5 mph - N/A   Overcast
2:19 PM 46.4 °F 44.3 °F 42.8 °F 87% 30.19 in 5.0 mi West 4.6 mph - N/A   Overcast
2:53 PM 48.0 °F - 41.0 °F 77% 30.20 in 7.0 mi SSW 6.9 mph - N/A   Scattered Clouds
3:53 PM 46.0 °F 44.8 °F 41.0 °F 83% 30.19 in 6.0 mi West 3.5 mph - N/A   Haze
4:53 PM 45.0 °F - 41.0 °F 86% 30.17 in 6.0 mi Calm Calm - N/A   Clear
5:53 PM 44.1 °F - 39.9 °F 85% 30.17 in 5.0 mi Calm Calm - N/A   Partly Cloudy
6:53 PM 44.1 °F - 41.0 °F 89% 30.15 in 4.0 mi Calm Calm - 0.00 in Rain Light Rain
7:53 PM 44.1 °F - 42.1 °F 93% 30.16 in 3.0 mi Calm Calm - 0.00 in   Overcast
8:23 PM 44.6 °F - 42.8 °F 93% 30.15 in 1.8 mi Calm Calm - 0.03 in Rain Rain
8:41 PM 44.6 °F - 42.8 °F 93% 30.15 in 2.0 mi Calm Calm - 0.07 in Rain Light Rain
8:53 PM 44.1 °F - 42.1 °F 93% 30.17 in 2.0 mi Calm Calm - 0.08 in Rain Light Rain
9:13 PM 44.6 °F 43.1 °F 42.8 °F 93% 30.13 in 3.0 mi SSW 3.5 mph - 0.00 in   Overcast
9:45 PM 44.6 °F - 42.8 °F 93% 30.14 in 2.5 mi Calm Calm - 0.00 in Rain Light Rain
9:53 PM 45.0 °F - 43.0 °F 93% 30.16 in 2.5 mi Calm Calm - 0.00 in Rain Light Rain
10:23 PM 46.4 °F 44.3 °F 42.8 °F 87% 30.13 in 3.0 mi SSW 4.6 mph - 0.00 in   Overcast
10:53 PM 46.9 °F - 44.1 °F 90% 30.15 in 3.0 mi SSW 5.8 mph - 0.00 in Rain Light Rain
11:53 PM 48.0 °F - 45.0 °F 89% 30.14 in 4.0 mi SW 4.6 mph - 0.00 in   Overcast